Flag for Netherlands Weather past 2 weeks in Rotterdam, Netherlands

Now
64 °F

Overcast.


Feels Like: 64 °F
Forecast: 60 / 71 °F
Wind: 16 mph from Northwest

Location: Rotterdam Zestienhoven Airport

Current Time: Jul 5, 2015 at 4:03:39 PM

Latest Report: Jul 5, 2015 at 3:25 PM


Visibility: N/A

Pressure: 30.01 "Hg

Humidity: 83%

Dew point: 59 °F

Location of RotterdamLocation

Historic Weather in Rotterdam — Graph

°F

Rotterdam temperature yesterday

Maximum temperature yesterday: 88 °F (at 11:55 AM)
Minimum temperature yesterday: 64 °F (at 11:55 PM)
Average temperature yesterday: 76 °F

Past Weeks' High & Low Weather Summary

 TemperatureHumidityPressure
High93 °F (Jul 1, 4:25 PM)100% (Jun 21, 11:25 AM)30.27 "Hg (Jun 21, 11:25 AM)
Low50 °F (Jun 23, 3:55 AM)28% (Jul 1, 5:25 PM)29.71 "Hg (Jun 22, 5:25 PM)
Average66 °F71%30.06 "Hg
* Reported Jun 20 2:25 PM — Jul 5 2:55 PM, Rotterdam, Weather by CustomWeather, © 2015

Note: Actual official high and low records may vary slightly from our data, if they occured in-between our weather recording intervals... More about our weather records

Advertising

Rotterdam weather history for previous 24 hours

 ConditionsComfort  
Time TempWeatherWind HumidityBarometerVisibility
2:55 PM
Sun, Jul 5
64 °FLight rain. Partly sunny.18 mph83%30.04 "HgN/A
2:25 PM72 °FClear.16 mph69%29.98 "HgN/A
1:55 PM77 °FClear.12 mph61%29.95 "HgN/A
1:25 PM81 °FClear.5 mph48%29.98 "HgN/A
12:55 PM81 °FClear.3 mph51%29.98 "HgN/A
12:25 PM81 °FClear.5 mph48%29.95 "HgN/A
11:55 AM79 °FWarm.2 mph51%29.98 "HgN/A
11:25 AM77 °FClear.3 mph54%29.98 "HgN/A
10:55 AM75 °FClear.5 mph57%30.01 "HgN/A
10:25 AM75 °FMild.5 mph65%30.01 "HgN/A
9:55 AM73 °FClear.2 mph69%30.04 "HgN/A
9:25 AM72 °FClear.2 mph69%30.04 "HgN/A
8:55 AM72 °FClear.2 mph69%30.04 "HgN/A
8:25 AM70 °FClear.2 mph73%30.04 "HgN/A
7:55 AM68 °FClear.2 mph78%30.07 "HgN/A
7:25 AM66 °FMild.2 mph83%30.07 "HgN/A
6:55 AM66 °FClear.2 mph83%30.07 "HgN/A
6:25 AM64 °FClear.3 mph88%30.07 "HgN/A
5:55 AM64 °FClear.3 mph88%30.07 "HgN/A
5:25 AM64 °FClear.2 mph88%30.09 "HgN/A
4:55 AM64 °FClear.3 mph83%30.09 "HgN/A
4:25 AM66 °FClear.5 mph83%30.09 "HgN/A
3:55 AM64 °FClear.3 mph83%30.09 "HgN/A
3:25 AM64 °FClear.3 mph83%30.12 "HgN/A
2:55 AM63 °FClear.5 mph83%30.12 "HgN/A
2:25 AM63 °FClear.5 mph83%30.12 "HgN/A
1:55 AM63 °FClear.1 mph88%30.12 "HgN/A
1:25 AM64 °FClear.3 mph83%30.12 "HgN/A
12:55 AM64 °FClear.6 mph83%30.12 "HgN/A
12:25 AM66 °FClear.6 mph78%30.12 "HgN/A
11:55 PM
Sat, Jul 4
64 °FClear.7 mph78%30.12 "HgN/A
11:25 PM66 °FClear.2 mph78%30.12 "HgN/A
10:55 PM66 °FClear.5 mph73%30.12 "HgN/A
10:25 PM66 °FClear.5 mph73%30.12 "HgN/A
9:55 PM68 °FClear.9 mph69%30.12 "HgN/A
9:25 PM70 °FClear.12 mph64%30.12 "HgN/A
8:55 PM70 °FMild.9 mph69%30.12 "HgN/A
8:25 PM70 °FMild.13 mph69%30.12 "HgN/A
7:55 PM70 °FClear.13 mph69%30.12 "HgN/A
7:25 PM72 °FClear.15 mph69%30.12 "HgN/A
6:55 PM73 °FClear.12 mph69%30.12 "HgN/A
6:25 PM73 °FClear.13 mph69%30.12 "HgN/A
5:55 PM75 °FClear.14 mph61%30.12 "HgN/A
5:25 PM77 °FClear.13 mph65%30.12 "HgN/A
4:55 PM79 °FClear.13 mph70%30.09 "HgN/A
4:25 PM81 °FClear.12 mph58%30.09 "HgN/A
Weather by CustomWeather, © 2015

See weather overviewHow to use our weather pages